When you browse on this site, cookies collect data to enhance your experience and personalize the content and advertising you see.
Visit our Privacy Policy to learn more. By continuing to use the site, you agree to this use of cookies and data.

Stündliche Wetter Idshewan

Heute, 18 September, Freitag

Zeit Temperatur Niederschläge Wind Luftdruck Luftfeuchtigkeit
00:00 +16°C° 0 mm 0 m/S 696 mmHg 87%
01:00 +16°C° 0 mm 0 m/S 695 mmHg 88%
02:00 +16°C° 0 mm 0 m/S 695 mmHg 90%
03:00 +16°C° 0 mm 0 m/S 695 mmHg 93%
04:00 +16°C° 0 mm 0 m/S 694 mmHg 92%
05:00 +16°C° 0 mm 0 m/S 694 mmHg 92%
06:00 +16°C° 0 mm 0 m/S 694 mmHg 92%
07:00 +18°C° 0 mm 0 m/S 694 mmHg 83%
08:00 +22°C° 0 mm 1 m/S 694 mmHg 75%
09:00 +24°C° 0 mm 1 m/S 694 mmHg 67%
10:00 +25°C° 0 mm 2 m/S 694 mmHg 61%
11:00 +27°C° 0 mm 2 m/S 694 mmHg 56%
12:00 +28°C° 0 mm 2 m/S 694 mmHg 50%
13:00 +28°C° 0 mm 2 m/S 693 mmHg 51%
14:00 +28°C° 0 mm 2 m/S 692 mmHg 52%
15:00 +28°C° 0 mm 2 m/S 692 mmHg 53%
16:00 +26°C° 0.1 mm 2 m/S 692 mmHg 61%
17:00 +24°C° 0.1 mm 1 m/S 692 mmHg 68%
18:00 +22°C° 0.1 mm 1 m/S 692 mmHg 75%
19:00 +22°C° 0 mm 1 m/S 692 mmHg 75%
20:00 +22°C° 0 mm 1 m/S 692 mmHg 75%
21:00 +20°C° 0 mm 2 m/S 692 mmHg 75%
22:00 +20°C° 0 mm 2 m/S 692 mmHg 73%
23:00 +19°C° 0 mm 2 m/S 692 mmHg 72%

Morgen, 19 September, Samstag

Zeit Temperatur Niederschläge Wind Luftdruck Luftfeuchtigkeit
00:00 +20°C° 0 mm 1 m/S 692 mmHg 71%
01:00 +20°C° 0 mm 1 m/S 692 mmHg 70%
02:00 +19°C° 0 mm 1 m/S 691 mmHg 69%
03:00 +19°C° 0 mm 1 m/S 691 mmHg 68%
04:00 +19°C° 0 mm 1 m/S 691 mmHg 67%
05:00 +19°C° 0 mm 1 m/S 691 mmHg 66%
06:00 +19°C° 0 mm 1 m/S 691 mmHg 66%
07:00 +21°C° 0 mm 1 m/S 692 mmHg 59%
08:00 +24°C° 0 mm 1 m/S 692 mmHg 52%
09:00 +26°C° 0 mm 1 m/S 692 mmHg 45%
10:00 +27°C° 0 mm 2 m/S 692 mmHg 42%
11:00 +28°C° 0 mm 2 m/S 692 mmHg 39%
12:00 +30°C° 0 mm 3 m/S 692 mmHg 36%
13:00 +29°C° 0 mm 3 m/S 692 mmHg 38%
14:00 +29°C° 0 mm 4 m/S 691 mmHg 39%
15:00 +28°C° 0 mm 4 m/S 691 mmHg 41%
16:00 +26°C° 0 mm 3 m/S 691 mmHg 47%
17:00 +24°C° 0 mm 2 m/S 691 mmHg 53%
18:00 +22°C° 0 mm 1 m/S 691 mmHg 60%
19:00 +21°C° 0 mm 1 m/S 691 mmHg 63%
20:00 +20°C° 0 mm 1 m/S 691 mmHg 66%
21:00 +19°C° 0 mm 1 m/S 692 mmHg 70%
22:00 +17°C° 0 mm 0 m/S 692 mmHg 72%
23:00 +16°C° 0 mm 0 m/S 692 mmHg 75%

übermorgen, 20 September, Sonntag

Zeit Temperatur Niederschläge Wind Luftdruck Luftfeuchtigkeit
00:00 +16°C° 0 mm 0 m/S 692 mmHg 78%
01:00 +15°C° 0 mm 0 m/S 692 mmHg 80%
02:00 +15°C° 0 mm 0 m/S 692 mmHg 81%
03:00 +14°C° 0 mm 0 m/S 692 mmHg 83%
04:00 +15°C° 0 mm 1 m/S 693 mmHg 85%
05:00 +14°C° 0 mm 1 m/S 693 mmHg 87%
06:00 +14°C° 0 mm 1 m/S 693 mmHg 89%
07:00 +16°C° 0 mm 1 m/S 694 mmHg 82%
08:00 +17°C° 0 mm 2 m/S 694 mmHg 74%
09:00 +19°C° 0 mm 2 m/S 694 mmHg 67%
10:00 +19°C° 0 mm 2 m/S 694 mmHg 65%
11:00 +20°C° 0 mm 3 m/S 694 mmHg 64%
12:00 +20°C° 0 mm 3 m/S 693 mmHg 63%
13:00 +20°C° 0 mm 3 m/S 693 mmHg 64%
14:00 +21°C° 0 mm 2 m/S 692 mmHg 64%
15:00 +21°C° 0 mm 2 m/S 692 mmHg 64%
16:00 +20°C° 0 mm 2 m/S 692 mmHg 67%
17:00 +20°C° 0 mm 1 m/S 692 mmHg 71%
18:00 +19°C° 0 mm 1 m/S 692 mmHg 74%
19:00 +19°C° 0 mm 1 m/S 693 mmHg 76%
20:00 +18°C° 0 mm 1 m/S 693 mmHg 79%
21:00 +18°C° 0 mm 1 m/S 694 mmHg 81%
22:00 +16°C° 0 mm 1 m/S 694 mmHg 83%
23:00 +16°C° 0 mm 1 m/S 694 mmHg 84%

21 September, Montag

Zeit Temperatur Niederschläge Wind Luftdruck Luftfeuchtigkeit
00:00 +15°C° 0 mm 1 m/S 694 mmHg 86%
01:00 +14°C° 0 mm 0 m/S 694 mmHg 87%
02:00 +14°C° 0 mm 0 m/S 694 mmHg 87%
03:00 +14°C° 0 mm 0 m/S 694 mmHg 87%
04:00 +15°C° 0 mm 0 m/S 694 mmHg 89%
05:00 +15°C° 0 mm 0 m/S 695 mmHg 90%
06:00 +15°C° 0 mm 0 m/S 695 mmHg 92%
07:00 +16°C° 0 mm 1 m/S 695 mmHg 91%
08:00 +18°C° 0 mm 1 m/S 695 mmHg 90%
09:00 +17°C° 0 mm 2 m/S 695 mmHg 89%
10:00 +18°C° 0.1 mm 2 m/S 695 mmHg 89%
11:00 +18°C° 0.1 mm 2 m/S 695 mmHg 88%
12:00 +18°C° 0.1 mm 3 m/S 695 mmHg 87%
13:00 +18°C° 0.1 mm 2 m/S 695 mmHg 88%
14:00 +18°C° 0.1 mm 2 m/S 694 mmHg 88%
15:00 +17°C° 0.1 mm 2 m/S 694 mmHg 88%
16:00 +17°C° 0 mm 2 m/S 694 mmHg 89%
17:00 +17°C° 0 mm 2 m/S 694 mmHg 91%
18:00 +16°C° 0 mm 1 m/S 694 mmHg 92%
19:00 +16°C° 0 mm 1 m/S 695 mmHg 93%
20:00 +16°C° 0 mm 1 m/S 695 mmHg 93%
21:00 +16°C° 0 mm 1 m/S 695 mmHg 94%
22:00 +16°C° 0.1 mm 1 m/S 695 mmHg 94%
23:00 +16°C° 0.1 mm 1 m/S 695 mmHg 94%

22 September, Dienstag

Zeit Temperatur Niederschläge Wind Luftdruck Luftfeuchtigkeit
00:00 +16°C° 0.1 mm 1 m/S 695 mmHg 94%
01:00 +16°C° 0 mm 1 m/S 694 mmHg 94%
02:00 +14°C° 0 mm 0 m/S 694 mmHg 94%
03:00 +14°C° 0 mm 0 m/S 694 mmHg 94%
04:00 +14°C° 0 mm 0 m/S 694 mmHg 94%
05:00 +14°C° 0 mm 0 m/S 694 mmHg 94%
06:00 +14°C° 0 mm 0 m/S 694 mmHg 94%
07:00 +16°C° 0 mm 1 m/S 694 mmHg 89%
08:00 +19°C° 0 mm 1 m/S 694 mmHg 83%
09:00 +20°C° 0 mm 1 m/S 694 mmHg 78%
10:00 +20°C° 0 mm 2 m/S 694 mmHg 75%
11:00 +20°C° 0 mm 2 m/S 694 mmHg 72%
12:00 +21°C° 0 mm 2 m/S 693 mmHg 69%
13:00 +23°C° 0 mm 2 m/S 693 mmHg 67%
14:00 +23°C° 0 mm 2 m/S 693 mmHg 65%
15:00 +24°C° 0 mm 2 m/S 693 mmHg 63%
16:00 +21°C° 0 mm 2 m/S 692 mmHg 69%
17:00 +21°C° 0 mm 1 m/S 692 mmHg 76%
18:00 +19°C° 0 mm 1 m/S 692 mmHg 82%
19:00 +19°C° 0.1 mm 1 m/S 693 mmHg 84%
20:00 +18°C° 0.1 mm 1 m/S 693 mmHg 86%
21:00 +18°C° 0.1 mm 1 m/S 694 mmHg 87%
22:00 +18°C° 0.2 mm 1 m/S 694 mmHg 88%
23:00 +18°C° 0.2 mm 1 m/S 694 mmHg 89%

23 September, Mittwoch

Zeit Temperatur Niederschläge Wind Luftdruck Luftfeuchtigkeit
00:00 +18°C° 0.2 mm 1 m/S 694 mmHg 90%
01:00 +18°C° 0.3 mm 1 m/S 694 mmHg 91%
02:00 +18°C° 0.3 mm 1 m/S 694 mmHg 92%
03:00 +16°C° 0.3 mm 0 m/S 694 mmHg 93%
04:00 +16°C° 0.2 mm 0 m/S 694 mmHg 94%
05:00 +18°C° 0.2 mm 1 m/S 695 mmHg 95%
06:00 +18°C° 0.2 mm 1 m/S 695 mmHg 95%
07:00 +18°C° 0.2 mm 1 m/S 695 mmHg 95%
08:00 +18°C° 0.2 mm 1 m/S 695 mmHg 94%
09:00 +18°C° 0.2 mm 2 m/S 695 mmHg 93%
10:00 +18°C° 0.1 mm 2 m/S 695 mmHg 92%
11:00 +18°C° 0.1 mm 2 m/S 695 mmHg 91%
12:00 +18°C° 0.1 mm 2 m/S 694 mmHg 90%
13:00 +18°C° 0.2 mm 2 m/S 694 mmHg 90%
14:00 +19°C° 0.2 mm 1 m/S 694 mmHg 89%
15:00 +19°C° 0.2 mm 1 m/S 694 mmHg 89%
16:00 +19°C° 0 mm 1 m/S 694 mmHg 90%
17:00 +19°C° 0 mm 1 m/S 694 mmHg 90%
18:00 +18°C° 0 mm 1 m/S 694 mmHg 90%
19:00 +18°C° 0 mm 1 m/S 694 mmHg 90%
20:00 +18°C° 0 mm 1 m/S 694 mmHg 90%
21:00 +18°C° 0 mm 1 m/S 695 mmHg 90%
22:00 +18°C° 0 mm 1 m/S 695 mmHg 91%
23:00 +18°C° 0 mm 1 m/S 695 mmHg 91%
Mehr zeigen